DELTA 1 DEB, 6214

Orbit data source: Space-Track

DELTA 1 DEB, 6214 is space debris in SSO originally from a launch on Mon, 28 Feb 1966 UTC launched from the Air Force Eastern Test Range (AFETR). Debris objects in space refer to the collection of defunct objects orbiting the Earth. Examples of debris include non-operational satellites, rocket bodies, and fragments generated from explosions, collisions, or faulty payload assembly.

Loading next visibility...
Identifier
6214, 1966-016E
Orbit
SSO
Country
Flag of USUS
Related business
Manufacturer
Unknown
Mission
Spacecraft
Bus & Motor
Unknown
Mass
Unknown
Launch date (UTC)
1966-02-28 (60 years ago)
Launch vehicle
Unknown
Launch site
Air Force Eastern Test Range (AFETR)
Object type
Payload
Rocket body
Debris
Shape & HBR
Unknown shape, 0.1 m
Radar Cross Section
Small (<0.1 m²)

Expand to show TLE details & history
Last TLE update: 1 day ago

TLE from 1 day ago
0 DELTA 1 DEB
1  6214U 66016E   26118.92497637  .00000070  00000-0  63201-3 0  9999
2  6214 101.7615 118.0989 0117683 259.1437 129.6537 12.62792156768701
Epoch: 2026-04-28T22:11Z
TLE epoch observation values (Epoch: 2026-04-28T22:11:57.958Z)
Latitude
29.18432°
Longitude
-78.43106°
Altitude
1,473.93 km
Speed
7.102 km/s
True Right ascension
07h 25m 48s
True Declination
29° 03' 05"
Sunlit
Object was in daylight at epoch
Visualization orbit readout
Latitude
Unknown
Longitude
Unknown
Altitude
Unknown
Speed
Unknown
Apparent Right ascension
Unknown
Apparent Declination
Unknown
Sunlit
N/A
Visualization observer readout
Local Sidereal Time
09:32:53
Azimuth
Unknown
Elevation
Unknown
Doppler factor
Unknown
Orbital elements
Apogee altitude
1,500.612 km
Perigee altitude
1,317.33 km
Semi-major axis
7,787.108 km
Eccentricity
0.01177
Inclination
101.7615°
RAAN
118.0989°
Arg. of periapsis
259.1437°
True anomaly
130.68225°
Mean anomaly
129.6537°
Eccentric anomaly
130.16894°
Mean motion
3.15849 °/min
Orbital period
113.98 mins
BSTAR
0.00063201
Loading maneuver chart data...
Computing Atmospheric mass density...
Loading historical data...
Loading historical data...
Loading historical data...
Loading historical data...
Loading historical data...
Loading historical data...
Loading historical data...
Other satellites on launch #16 in the year 1966 (1966-02-28 UTC)

Documentation

Showing up to 5 results
|